Location: Arrington
(35.8681°N, 86.7092°W)
Time: 02:32:33
(UTC+00:00)

SL-4 R/B - Pass Details

Date: 23 November 2019
Orbit: 428 x 667 km, 51.6° (Epoch: 08 December)

Event Time Altitude Azimuth Distance (km) Brightness Sun altitude
Exits shadow 11:24:06 20° 278° (W) 1,521 3.6 -13.5°
Maximum altitude 11:26:34 32° 231° (SW) 1,137 3.3 -13.0°
Drops below altitude 10° 11:30:47 10° 168° (SSE) 2,051 5.3 -12.2°
Sets 11:33:16 0° 158° (SSE) 2,934 6.3 -11.7°
